STARLINK-3179, 51141

Orbit data source: Space-Track

STARLINK-3179, 51141 is a payload satellite owned by SpaceX/Seattle (US) in LEO that was launched on Wed, 19 Jan 2022 UTC via an FALCON 9 launch vehicle from the Air Force Eastern Test Range (AFETR). Payload-class satellites include a variety of spacecraft equipped with specific instruments for various scientific and technological missions. These include communications satellites like Starlink; space stations such as the ISS; scientific satellites like the Hubble; Earth observation satellites from companies like Planet Labs, Umbra, and HawkEye 360; GPS; miniature CubeSats for education and research; and military/defense satellites.

Loading next visibility...
Identifier
51141, 2022-005AP
Orbit
LEO
Country
Flag of USUS
Related business
Manufacturer
SpaceX/Seattle
Mission
Operational Commercial Communications
Bus & Motor
STARLINK, Unknown motor
Mass
297 kg wet, ~275 kg dry
Launch date (UTC)
2022-01-19 (4 years ago)
Launch vehicle
FALCON 9
Launch site
Air Force Eastern Test Range (AFETR)
Object type
Payload
Rocket body
Debris
Shape & HBR
Box + 1 Pan, 10.1 m
Radar Cross Section
13.562 m², Large (>1 m²)

Expand to show TLE details & history
Last TLE update: 10 hours ago

TLE from 10 hours ago
0 STARLINK-3179
1 51141U 22005AP  26094.27048308  .00001077  00000-0  85746-4 0  9993
2 51141  53.2167 184.2851 0001105  99.4457 260.6660 15.08841323232606
Epoch: 2026-04-04T06:29Z
TLE epoch observation values (Epoch: 2026-04-04T06:29:29.738Z)
Latitude
-0.00001°
Longitude
-105.68148°
Altitude
540.761 km
Speed
7.593 km/s
True Right ascension
12h 17m 08s
True Declination
0° 00' 00"
Sunlit
Object was in full shadow at epoch
Visualization orbit readout
Latitude
Unknown
Longitude
Unknown
Altitude
Unknown
Speed
Unknown
Apparent Right ascension
Unknown
Apparent Declination
Unknown
Sunlit
N/A
Visualization observer readout
Local Sidereal Time
22:47:30
Azimuth
Unknown
Elevation
Unknown
Doppler factor
Unknown
Orbital elements
Apogee altitude
540.749 km
Perigee altitude
539.22 km
Semi-major axis
6,918.121 km
Eccentricity
0.00011
Inclination
53.2167°
RAAN
184.2851°
Arg. of periapsis
99.4457°
True anomaly
260.65351°
Mean anomaly
260.666°
Eccentric anomaly
260.65975°
Mean motion
3.77191 °/min
Orbital period
95.44 mins
BSTAR
0.000085746
Loading maneuver chart data...
Computing Atmospheric mass density...
Loading historical data...
Loading historical data...
Loading historical data...
Loading historical data...
Loading historical data...
Loading historical data...
Loading historical data...

Documentation

Showing up to 5 results
|